Regional Weather Roundup
Issued by NWS Portland, ME

Current Version | Previous Version | Graphics & Text | Print | Product List | Glossary On
Versions: 1 2 3 4 5 6 7 8 9 10 11 12 13 14 15 16 17 18 19 20 21 22 23 24 25 26 27 28 29 30 31 32 33 34 35 36 37 38 39 40 41 42 43 44 45 46 47 48 49 50
801
ASUS41 KGYX 211510
RWRGYX
WEATHER ROUNDUP FOR MAINE AND NEW HAMPSHIRE
NATIONAL WEATHER SERVICE GRAY ME
1000 AM EST TUE FEB 21 2017

MEZ002-005-006-010-012-015-018-020-021-024-026-027-029-211600-
MAINE

CITY           SKY/WX    TMP DP  RH WIND       PRES   REMARKS
PORTLAND       MOSUNNY   32  13  45 NE3       30.38F
SANFORD        SUNNY     31  17  56 N3        30.37F
BAR HARBOR     SUNNY     27  10  49 N5        30.37S
WISCASSET      SUNNY     33  12  41 E5        30.38F
ROCKLAND       SUNNY     30  13  49 NE7       30.37F
FRYEBURG       SUNNY     29  13  51 CALM      30.34F
LEWISTONAUBURN SUNNY     29  15  56 CALM      30.36F
AUGUSTA        SUNNY     29  10  45 NE3       30.36F
WATERVILLE     SUNNY     28  12  50 VRB3      30.33F
BANGOR         SUNNY     27   9  46 N7        30.37F
GREENVILLE       N/A     23  10  57 E3        30.23F
MILLINOCKET    SUNNY     27   8  44 CALM      30.35F
HOULTON        SUNNY     21  11  65 NE5       30.32S
PRESQUE ISLE   CLOUDY    23   7  50 CALM      30.34S
FRENCHVILLE    CLOUDY    17   6  62 SW6       30.27F
CARIBOU        CLOUDY    17   9  70 CALM      30.31S
$$

NHZ002-005-008-009-011-012-014-211600-
NEW HAMPSHIRE

CITY           SKY/WX    TMP DP  RH WIND       PRES   REMARKS
PORTSMOUTH     MOSUNNY   35  15  43 CALM      30.37F
ROCHESTER      SUNNY     33  13  43 CALM      30.36F
NASHUA         SUNNY     33  17  51 CALM      30.37F
MANCHESTER     MOSUNNY   34  15  46 CALM      30.35F
CONCORD        SUNNY     32  16  51 CALM      30.36F
LACONIA        SUNNY     34  15  46 MISG      30.34F
PLYMOUTH       FAIR      28  14  54 CALM      30.34F
BERLIN         CLOUDY    22  11  62 CALM      30.28F
WHITEFIELD     CLOUDY    26  13  57 CALM      30.29F
JAFFREY        SUNNY     35   9  33 CALM      30.32F
KEENE          SUNNY     28  16  60 CALM      30.35F
LEBANON        CLOUDY    27  17  66 W5        30.33F
MT WASHINGTON  MOSUNNY   34   0  23 S7          N/A
$$

VTZ005-007-008-211600-
VERMONT

CITY           SKY/WX    TMP DP  RH WIND       PRES   REMARKS
ST JOHNSBURY     N/A     22  13  68 MISG      30.30F
MONTPELIER     CLOUDY    23  15  71 CALM      30.31F
BURLINGTON     PTSUNNY   33  16  49 S10       30.26F
$$

MAZ007-012-024-CTZ003-RIZ002-NYZ038-NYZ072-211600-
SOUTHERN NEW ENGLAND AND NY

CITY           SKY/WX    TMP DP  RH WIND       PRES   REMARKS
BOSTON         MOSUNNY   38  23  55 E8        30.38F
WORCESTER      SUNNY     34   9  35 CALM      30.32F
NANTUCKET      SUNNY     41  28  60 N14       30.37S
PROVIDENCE     PTSUNNY   39  20  46 NE6       30.37F
HARTFORD       PTSUNNY   34  15  46 N3        30.38F
ALBANY         PTSUNNY   31  17  56 SE6       30.34F
NEW YORK CITY  PTSUNNY   40  22  48 NE8       30.38S
$$

ANZ081-ANZ082-ANZ150-NHZ014-MEZ023>029-211600-
COASTAL MARINE OBSERVATIONS

STATION/POSITION TIME  TEMP    WIND        PRES    WAVE
                       AIR SEA DIR/SP/G            HT/PER
                 (UTC) (F)     (DEG/KT/KT) (MB)    (FT/S)
MOUNT DESERT ROC 1500   28                 1028.4R
MATINICUS ROCK   1500   29      30/  9/ 11 1027.9F
ISLE OF SHOALS   1500   34      30/  5/  7 1028.4F
JEFFREYS LEDGE   1406      44                N/A     4/ 6
CASHES LEDGE BUO 1450   34 42              1028.4S   4/ 6
GEORGES BANK BUO 1450   36 43              1025.2S   7/ 6
$$

.............KEY..............
   WCI - WIND CHILL
   TC  - TEMPERATURE IN CELSIUS
   VSB - VISIBILITY IN MILES
   HX  - HEAT INDEX
   FAIR- INDICATES FEW OR NO CLOUDS BELOW 12,000 FT, WITH NO
         SIGNIFICANT WEATHER AND/OR OBSTRUCTIONS TO VISIBILITY.






USA.gov is the U.S. government's official web portal to all federal, state and local government web resources and services.